Home   Weather   Alicante   Past weeks

Flag for Spain Past Weather in Alicante, Spain — Yesterday and Last 2 Weeks

Now
64 °F

Sunny.


Feels Like: 64 °F
Forecast: 54 / 63 °F
Wind: 14 mph from East

Location: Alicante / El Altet

Current Time: Feb 23, 2017 at 2:53:01 pm

Latest Report: Feb 23, 2017 at 2:00 pm


Visibility: 10 mi

Pressure: 29.92 "Hg

Humidity: 64%

Dew Point: 52 °F

Location of AlicanteLocation

Past Weather in Alicante — Graph

°F

Alicante Temperature Yesterday

Maximum temperature yesterday: 64 °F (at 2:00 pm)
Minimum temperature yesterday: 46 °F (at 8:00 am)
Average temperature yesterday: 58 °F

High & Low Weather Summary for the Past Weeks

 TemperatureHumidityPressure
High68 °F (Feb 13, 2:00 pm)94% (Feb 17, 1:00 am)30.48 "Hg (Feb 17, 1:00 am)
Low41 °F (Feb 10, 3:30 am)19% (Feb 8, 5:00 pm)29.59 "Hg (Feb 13, 5:00 am)
Average56 °F65%30.12 "Hg
* Reported Feb 8 1:00 pm — Feb 23 1:30 pm, Alicante, Weather by CustomWeather, © 2017

Note: Actual official high and low records may vary slightly from our data, if they occured in-between our weather recording intervals... More about our weather records

Advertising

Alicante Weather History for the Previous 24 Hours

Scroll right to see more
 ConditionsComfort  
Time TempWeatherWind HumidityBarometerVisibility
1:30 pm
Thu, Feb 23
63 °FSunny.17 mph64%29.92 "Hg10 mi
1:00 pm63 °FSunny.13 mph73%29.95 "Hg10 mi
12:30 pm63 °FPassing clouds.12 mph73%29.95 "HgN/A
12:00 pm63 °FPassing clouds.6 mph73%29.95 "HgN/A
11:30 am61 °FPassing clouds.6 mph77%29.98 "HgN/A
11:00 am59 °FPassing clouds.10 mph82%29.98 "HgN/A
10:30 am59 °FScattered clouds.7 mph82%29.98 "HgN/A
10:00 am59 °FScattered clouds.6 mph77%29.98 "HgN/A
9:30 am57 °FLight rain. Scattered clouds.5 mph82%29.98 "HgN/A
9:00 am57 °FScattered clouds.9 mph82%29.98 "HgN/A
8:30 am57 °FLight rain. Scattered clouds.14 mph77%29.98 "HgN/A
8:00 am57 °FLight rain. Partly sunny.7 mph82%30.01 "HgN/A
7:30 am57 °FLight rain. Passing clouds.9 mph82%30.01 "HgN/A
7:00 am59 °FPassing clouds.10 mph77%29.98 "HgN/A
6:30 am61 °FLight rain. Passing clouds.9 mph68%29.95 "HgN/A
6:00 am59 °FLight rain. Passing clouds.12 mph72%29.98 "HgN/A
5:30 am57 °FLight rain. Passing clouds.9 mph72%30.01 "HgN/A
5:00 am55 °FLight rain. Passing clouds.14 mph82%30.01 "HgN/A
4:30 am55 °FLight rain. Passing clouds.7 mph82%30.07 "HgN/A
4:00 am57 °FLight rain. Passing clouds.7 mph77%30.07 "HgN/A
3:30 am59 °FLight rain. Passing clouds.10 mph68%30.04 "HgN/A
3:00 am59 °FPassing clouds.10 mph68%30.07 "HgN/A
2:30 am61 °FPassing clouds.8 mph55%30.04 "HgN/A
2:00 am61 °FPassing clouds.7 mph59%30.07 "HgN/A
1:30 am59 °FPassing clouds.6 mph63%30.07 "HgN/A
1:00 am59 °FPassing clouds.3 mph55%30.09 "HgN/A
12:30 am59 °FClear.2 mph59%30.09 "Hg10 mi
12:00 am59 °FClear.2 mph51%30.09 "Hg10 mi
11:30 pm
Wed, Feb 22
61 °FClear.6 mph45%30.07 "Hg10 mi
11:00 pm61 °FClear.6 mph48%30.07 "Hg10 mi
10:30 pm61 °FPassing clouds.8 mph48%30.07 "HgN/A
10:00 pm61 °FClear.8 mph52%30.09 "Hg10 mi
9:30 pm61 °FPassing clouds.10 mph52%30.09 "HgN/A
9:00 pm61 °FClear.9 mph55%30.09 "Hg10 mi
8:30 pm61 °FClear.8 mph55%30.09 "Hg10 mi
8:00 pm61 °FClear.12 mph55%30.09 "Hg10 mi
7:30 pm61 °FClear.12 mph55%30.09 "Hg10 mi
7:00 pm61 °FClear.13 mph52%30.09 "Hg10 mi
6:30 pm61 °FSunny.15 mph52%30.09 "Hg10 mi
6:00 pm61 °FSunny.15 mph52%30.09 "Hg10 mi
5:30 pm61 °FSunny.14 mph52%30.07 "Hg10 mi
5:00 pm63 °FSunny.18 mph52%30.07 "Hg10 mi
4:30 pm63 °FSunny.16 mph52%30.09 "Hg10 mi
4:00 pm63 °FSunny.14 mph56%30.09 "Hg10 mi
3:30 pm63 °FSunny.16 mph49%30.12 "Hg10 mi
3:00 pm63 °FPassing clouds.15 mph49%30.09 "HgN/A
2:30 pm63 °FSunny.13 mph45%30.12 "Hg10 mi
2:00 pm64 °FSunny.14 mph43%30.12 "Hg10 mi
Weather by CustomWeather, © 2017

See weather overviewHow to use our weather pages